Find Starlink 4314

NORAD ID: 53056 Int'l Des: 2022-077 Owner: SPXS Country: US Constellation: starlink operational
LEOCIRCULARRETROGRADESSO

リアルタイム位置

3D地球を読み込み中...

Starlink 4314について

説明を読み込み中...

次回通過

Passes for default location (London). Set your location on the main map for personalized predictions.

高度履歴

Loading altitude history...

軌道要素

1 53056U 22077P 26124.47923554 -.00001164 00000-0 -76545-4 0 9996
2 53056 97.5383 306.1330 0001188 105.9972 254.1385 15.05651910209375
Epoch: May 4, 2026 • Age: 9 hours

現在のステータス

高度 552.0 km
速度 7.59 km/s
衛星直下点 24.08°N, 35.36°W
打ち上げ日 Jul 11, 2022
運用期間 3.8 years
タイプ internet

技術仕様

分類 Payload
質量 297.00 kg
乾燥質量 275.00 kg
総質量 297.00 kg
長さ 0.20 m
直径 2.80 m
スパン 9.00 m
形状 Box + pan
製造者 SPXS
バスタイプ Starlink
フェーズステータス In Orbit
所有者/国 SPXS/US

Most Searched